Weather History for Danville, VA

Change the Weather History Date:

Sunday, November 10, 2013

  Actual Average Record
Temperature  
Mean Temperature 54 °F 51 °F  
Max Temperature 72 °F 63 °F 81 °F (1986)
Min Temperature 36 °F 40 °F 22 °F (1967)
Degree Days  
Heating Degree Days 11 14  
Month to date heating degree days 135 123  
Since 1 July heating degree days 325 356  
Cooling Degree Days 0 0  
Month to date cooling degree days 0 0  
Year to date cooling degree days 1413 1436  
Growing Degree Days 5 (Base 50)    
Moisture  
Dew Point 28 °F    
Average Humidity 43    
Maximum Humidity 70    
Minimum Humidity 16    
Precipitation  
Precipitation 0.00 in 0.12 in 2.67 in (1962)
Month to date precipitation 0.13 1.23  
Year to date precipitation 43.79 39.01  
Snow  
Snow 0.00 in - - ()
Month to date snowfall 0.0  
Since 1 July snowfall 0.0  
Since 1 September snowfall 0.0  
Snow Depth 0.00 in    
Sea Level Pressure  
Sea Level Pressure 30.14 in    
Wind  
Wind Speed 10 mph (West)    
Max Wind Speed 21 mph    
Max Gust Speed 29 mph    
Visibility 10 miles    
Events      
T = Trace of Precipitation, MM = Missing Value Source: NWS Daily Summary

Daily Weather History Graph

Daily Weather History Graph

Search for Another Location

Airport:

Trip Planner

Search our weather history database for the weather conditions in past years. The results will help you decide how hot, cold, wet, or windy it might be!

Date:

Astronomy

Nov. 10, 2013 Rise Set
Actual Time 6:50 AM EST 5:12 PM EST
Civil Twilight 6:22 AM EST 5:39 PM EST
Nautical Twilight 5:51 AM EST 6:10 PM EST
Astronomical Twilight 5:21 AM EST 6:40 PM EST
Moon 1:05 PM EST (11/10) No Moon Set
Length of Visible Light 11h 16m
Length of Day
10h 21m
First Quarter, 55% of the Moon is Illuminated
Nov 10
First Quarter
Nov 17
Full
Nov 25
Last Quarter
Dec 2
New
Dec 9
First Quarter

Hourly Weather History & Observations

Time (EST) Temp. Windchill Dew Point Humidity Pressure Visibility Wind Dir Wind Speed Gust Speed Precip Events Conditions
12:53 AM 42.1 °F 39.2 °F 28.9 °F 60% 30.15 in 10.0 mi SSW 4.6 mph - N/A   Clear
1:53 AM 39.0 °F 35.7 °F 30.0 °F 70% 30.14 in 10.0 mi West 4.6 mph - N/A   Clear
2:53 AM 41.0 °F 38.0 °F 30.0 °F 65% 30.15 in 10.0 mi SSW 4.6 mph - N/A   Clear
3:53 AM 39.9 °F 35.8 °F 30.0 °F 68% 30.14 in 10.0 mi West 5.8 mph - N/A   Clear
4:53 AM 39.0 °F 34.0 °F 30.0 °F 70% 30.15 in 10.0 mi WSW 6.9 mph - N/A   Clear
5:53 AM 39.0 °F 34.0 °F 30.0 °F 70% 30.16 in 10.0 mi West 6.9 mph - N/A   Clear
6:53 AM 39.0 °F 34.8 °F 30.0 °F 70% 30.17 in 10.0 mi West 5.8 mph - N/A   Clear
7:53 AM 46.0 °F 43.1 °F 30.9 °F 56% 30.18 in 10.0 mi West 5.8 mph - N/A   Clear
8:53 AM 52.0 °F - 34.0 °F 50% 30.17 in 10.0 mi WSW 5.8 mph - N/A   Clear
9:53 AM 59.0 °F - 35.1 °F 41% 30.16 in 10.0 mi WSW 15.0 mph - N/A   Clear
10:53 AM 64.0 °F - 36.0 °F 35% 30.13 in 10.0 mi WSW 15.0 mph - N/A   Clear
11:53 AM 66.0 °F - 35.1 °F 32% 30.10 in 10.0 mi WSW 15.0 mph 24.2 mph N/A   Clear
12:53 PM 69.1 °F - 33.1 °F 26% 30.06 in 10.0 mi West 15.0 mph 25.3 mph N/A   Clear
1:53 PM 71.1 °F - 30.0 °F 22% 30.04 in 10.0 mi West 16.1 mph 28.8 mph N/A   Clear
2:53 PM 71.1 °F - 27.0 °F 19% 30.04 in 10.0 mi WNW 15.0 mph 23.0 mph N/A   Clear
3:53 PM 70.0 °F - 26.1 °F 19% 30.05 in 10.0 mi West 8.1 mph 17.3 mph N/A   Clear
4:53 PM 66.9 °F - 19.9 °F 17% 30.08 in 10.0 mi NW 9.2 mph - N/A   Clear
5:53 PM 63.0 °F - 19.0 °F 18% 30.11 in 10.0 mi NW 11.5 mph - N/A   Clear
6:53 PM 62.1 °F - 19.0 °F 19% 30.14 in 10.0 mi NW 12.7 mph 20.7 mph N/A   Clear
7:53 PM 55.9 °F - 21.9 °F 27% 30.18 in 10.0 mi North 5.8 mph - N/A   Clear
8:53 PM 54.0 °F - 24.1 °F 31% 30.21 in 10.0 mi NNW 8.1 mph - N/A   Clear
9:53 PM 53.1 °F - 28.0 °F 38% 30.24 in 10.0 mi North 11.5 mph - N/A   Clear
10:53 PM 50.0 °F - 25.0 °F 38% 30.25 in 10.0 mi North 11.5 mph - N/A   Clear
11:53 PM 46.9 °F - 24.1 °F 41% 30.26 in 10.0 mi NNW 10.4 mph - N/A   Clear